This demonstration page uses our WeatherBlox Daily Observations layout. Learn more.

40.92945, -100.16068

Hourly Observations for December 23, 2016

Temp ( °F °C ) Dew Point ( °F °C ) Humidity (%) Winds ( mph kmh ) Pressure ( in mb ) Visibility ( mi km ) Precip ( " mm )
12:15 am 00:15 Cloudy 34 1 30 -1.2 85 85 S 10 17 30.12 1020 10 16.0934 N/A
12:35 am 00:35 Cloudy 33 0.8 30 -1.2 87 87 SSE 12 19 30.15 1021 10 16.0934 N/A
12:55 am 00:55 Cloudy 33 0.7 30 -1.2 87 87 SSE 14 22 30.15 1021 10 16.0934 N/A
1:15 am 01:15 Cloudy 33 0.6 29 -1.4 87 87 SSE 13 20 30.12 1020 10 16.0934 N/A
1:35 am 01:35 Cloudy 33 0.6 29 -1.6 85 85 SSE 15 24 30.12 1020 10 16.0934 N/A
1:55 am 01:55 Cloudy 34 0.9 28 -2.5 78 78 SSE 15 24 30.06 1018 10 16.0934 N/A
2:15 am 02:15 Cloudy 33 0.8 27 -2.6 78 78 SSE 12 19 30.03 1017 10 16.0934 N/A
2:35 am 02:35 Cloudy 34 1 25 -3.7 71 71 SSE 16 26 30.03 1017 10 16.0934 N/A
2:55 am 02:55 Cloudy 34 1.1 24 -4.5 67 67 SSE 15 24 30.03 1017 10 16.0934 N/A
3:15 am 03:15 Cloudy 34 1 23 -4.8 66 66 SSE 17 28 30 1016 10 16.0934 N/A
3:35 am 03:35 Cloudy 34 1 22 -5.5 62 62 S 16 26 29.97 1015 10 16.0934 N/A
3:55 am 03:55 Cloudy 34 1 22 -5.3 63 63 S 16 26 29.97 1015 10 16.0934 N/A
4:15 am 04:15 Cloudy 33 0.5 24 -4.6 69 69 S 16 26 29.94 1014 10 16.0934 N/A
4:35 am 04:35 Cloudy 32 0.1 25 -3.7 76 76 S 17 28 29.94 1014 10 16.0934 N/A
4:55 am 04:55 Cloudy with Light Wintry Mix 32 -0.1 27 -3 81 81 S 10 17 29.94 1014 10 16.0934 N/A
5:15 am 05:15 Cloudy with Light Wintry Mix 32 -0.2 28 -2.3 86 86 S 10 17 29.91 1013 10 16.0934 N/A
5:35 am 05:35 Cloudy with Light Wintry Mix 32 0 28 -2 87 87 S 14 22 29.91 1013 10 16.0934 N/A
5:55 am 05:55 Cloudy 32 -0.1 28 -2.1 87 87 S 16 26 29.91 1013 10 16.0934 N/A
6:15 am 06:15 Cloudy 32 -0.1 28 -2.4 85 85 S 14 22 29.91 1013 10 16.0934 N/A
6:35 am 06:35 Cloudy with Light Wintry Mix 32 -0.1 28 -2.3 85 85 S 10 17 29.88 1012 10 16.0934 N/A
6:55 am 06:55 Cloudy with Light Wintry Mix 32 -0.2 28 -2.3 86 86 S 10 17 29.88 1012 10 16.0934 N/A
7:15 am 07:15 Cloudy with Light Wintry Mix 31 -0.3 28 -2.3 87 87 S 8 13 29.88 1012 10 16.0934 N/A
7:35 am 07:35 Cloudy with Light Wintry Mix 31 -0.3 28 -2.4 86 86 S 9 15 29.88 1012 10 16.0934 N/A
7:55 am 07:55 Cloudy with Light Wintry Mix 31 -0.4 28 -2.3 87 87 S 9 15 29.88 1012 10 16.0934 N/A
8:15 am 08:15 Cloudy 31 -0.5 28 -2.5 87 87 S 10 17 29.85 1011 10 16.0934 N/A
8:35 am 08:35 Cloudy 31 -0.5 28 -2.3 88 88 S 8 13 29.85 1011 10 16.0934 N/A
8:55 am 08:55 Cloudy 32 -0.2 28 -2 88 88 S 8 13 29.85 1011 10 16.0934 N/A
9:15 am 09:15 Cloudy 32 -0.1 28 -2 87 87 S 9 15 29.85 1011 10 16.0934 N/A
9:35 am 09:35 Cloudy with Light Wintry Mix 32 0 29 -1.7 88 88 SSW 6 9 29.85 1011 10 16.0934 N/A
9:55 am 09:55 Cloudy with Light Wintry Mix 32 0 29 -1.5 90 90 SSW 6 9 29.85 1011 10 16.0934 N/A
10:15 am 10:15 Cloudy with Light Wintry Mix 32 0 29 -1.5 90 90 SW 5 7 29.88 1012 10 16.0934 N/A
10:35 am 10:35 Cloudy 32 0.2 30 -1.2 90 90 WSW 3 6 29.88 1012 10 16.0934 N/A
10:55 am 10:55 Cloudy 33 0.5 30 -1.1 89 89 WSW 5 7 29.88 1012 10 16.0934 N/A
11:15 am 11:15 Cloudy 33 0.5 30 -1 90 90 SW 6 9 29.88 1012 10 16.0934 N/A
11:35 am 11:35 Cloudy 33 0.7 31 -0.7 90 90 SW 6 9 29.85 1011 10 16.0934 N/A
11:55 am 11:55 Cloudy 34 1 31 -0.7 89 89 SW 6 9 29.85 1011 10 16.0934 N/A
12:15 pm 12:15 Cloudy 35 1.5 32 0 90 90 WSW 6 9 29.83 1010 10 16.0934 N/A
12:35 pm 12:35 Cloudy 36 2.2 32 0 86 86 W 7 11 29.83 1010 10 16.0934 N/A
12:55 pm 12:55 Cloudy 37 2.6 32 0.1 84 84 W 7 11 29.83 1010 10 16.0934 N/A
1:15 pm 13:15 Cloudy 38 3.3 33 0.5 82 82 W 6 9 29.8 1009 10 16.0934 N/A
1:35 pm 13:35 Partly Cloudy 42 5.4 33 0.6 71 71 W 7 11 29.77 1008 10 16.0934 N/A
1:55 pm 13:55 Sunny 44 6.6 33 0.3 64 64 WNW 13 20 29.77 1008 10 16.0934 N/A
2:15 pm 14:15 Sunny 46 7.5 32 0 59 59 WNW 14 22 29.74 1007 10 16.0934 N/A
2:35 pm 14:35 Sunny 48 8.7 30 -1.2 50 50 NW 21 33 29.77 1008 10 16.0934 N/A
2:55 pm 14:55 Sunny 48 9.1 27 -2.8 43 43 NW 20 31 29.77 1008 10 16.0934 N/A
3:15 pm 15:15 Sunny 49 9.6 27 -2.7 42 42 NW 16 26 29.77 1008 10 16.0934 N/A
3:35 pm 15:35 Sunny 49 9.6 26 -3.5 40 40 NW 18 30 29.8 1009 10 16.0934 N/A
3:55 pm 15:55 Sunny 48 9.1 23 -5 37 37 NNW 13 20 29.8 1009 10 16.0934 N/A
4:15 pm 16:15 Sunny 47 8.4 22 -5.5 37 37 NW 16 26 29.83 1010 10 16.0934 N/A
4:35 pm 16:35 Sunny 45 7.4 23 -5 41 41 NNW 10 17 29.85 1011 10 16.0934 N/A
4:55 pm 16:55 Sunny 42 5.5 22 -5.3 46 46 NNW 9 15 29.85 1011 10 16.0934 N/A
5:15 pm 17:15 Sunny 36 2.4 21 -6.2 53 53 NNW 9 15 29.88 1012 10 16.0934 N/A
5:35 pm 17:35 Clear 33 0.6 20 -6.6 59 59 NW 9 15 29.94 1014 10 16.0934 N/A
5:55 pm 17:55 Clear 31 -0.5 19 -7.5 60 60 NW 8 13 29.94 1014 10 16.0934 N/A
6:15 pm 18:15 Clear 29 -1.9 17 -8.6 61 61 NW 6 9 29.97 1015 10 16.0934 N/A
6:35 pm 18:35 Clear 27 -2.8 16 -9 63 63 NW 6 9 30 1016 10 16.0934 N/A
6:55 pm 18:55 Clear 24 -4.3 16 -8.9 71 71 WNW 10 17 30.03 1017 10 16.0934 N/A
7:15 pm 19:15 Clear 25 -3.9 16 -8.7 70 70 WNW 10 17 30.06 1018 10 16.0934 N/A
7:35 pm 19:35 Clear 24 -4.4 15 -9.5 68 68 WNW 7 11 30.06 1018 10 16.0934 N/A
7:55 pm 19:55 Clear 25 -3.7 16 -8.7 69 69 WNW 8 13 30.06 1018 10 16.0934 N/A
8:15 pm 20:15 Clear 21 -6 14 -10 74 74 NW 9 15 30.09 1019 10 16.0934 N/A
8:35 pm 20:35 Clear 21 -6.1 13 -10.7 70 70 NW 8 13 30.09 1019 10 16.0934 N/A
8:55 pm 20:55 Clear 20 -6.8 13 -10.5 75 75 WNW 5 7 30.12 1020 10 16.0934 N/A
9:15 pm 21:15 Clear 19 -7.3 12 -11.3 73 73 WNW 6 9 30.12 1020 10 16.0934 N/A
9:35 pm 21:35 Clear 18 -7.7 12 -11.2 76 76 WNW 6 9 30.12 1020 10 16.0934 N/A
9:55 pm 21:55 Clear 19 -7.4 13 -10.5 79 79 WNW 10 17 30.15 1021 10 16.0934 N/A
10:15 pm 22:15 Clear 18 -7.8 11 -11.5 75 75 NW 7 11 30.15 1021 10 16.0934 N/A
10:35 pm 22:35 Clear 17 -8.6 11 -11.8 78 78 W 6 9 30.18 1022 10 16.0934 N/A
10:55 pm 22:55 Clear 16 -8.7 10 -12.3 75 75 W 3 6 30.18 1022 10 16.0934 N/A
11:15 pm 23:15 Clear 13 -10.6 8 -13.6 79 79 Calm 30.18 1022 10 16.0934 N/A
11:35 pm 23:35 Clear 14 -10.1 9 -12.8 81 81 NNW 5 7 30.18 1022 10 16.0934 N/A
11:55 pm 23:55 Clear 11 -11.6 7 -14.1 82 82 W 5 7 30.24 1024 10 16.0934 N/A

Powered by AerisWeather